SCP
0 0 0 0 0 0 0 0 0 0 0 0 0 0 0 0 0 0 0 0 0 0 0 0 0 0 0 0 0 0 0 0 0 0 0 0 0 0 0 0 0 0 0 0
0 0 0 0 0 0 0 0 0 0 0 0 0 0 0 0 0 0 0 0 0 0 0 0 0 0 0 0 0 0 0 0 0 0 0 0 0 0 0 0 0 0 0 0
0 0 0 0 0 0 0 0 0 0 0 0 0 0 0 0 0 0 0 0 0 0 0 0 0 0 0 0 0 0 0 0 0 0 0 0 0 0 0 0 0 0 0 0
0 0 0 0 0 0 0 0 0 0 0 0 0 0 0 0 0 0 0 0 0 0 0 0 0 0 0 0 0 0 0 0 0 0 0 0 0 0 0 0 0 0 0 0
0 0 0 0 0 0 0 0 0 0 0 0 0 0 0 0 0 0 0 0 0 0 0 0 0 0 0 0 0 0 0 0 0 0 0 0 0 0 0 0 0 0 0 0
0 0 0 0 0 0 0 0 0 0 0 0 0 0 0 0 0 0 0 0 0 0 0 0 0 0 0 0 0 0 0 0 0 0 0 0 0 0 0 0 0 0 0 0
0 0 0 0 0 0 0 0 0 0 0 0 0 0 0 0 0 0 0 0 0 0 0 0 0 0 0 -0 0 0 0 0 0 0 0 0 0 0 0 0 0 0 0 0
0 0 0 0 0 0 0 0 0 0 0 0 0 0 0 0 0 0 0 0 0 0 0 0 0 0 -0 -0 0 0 0 0 0 0 0 0 0 0 0 0 0 0 0 0
0 0 0 0 0 0 0 0 0 0 0 0 0 0 0 0 0 0 0 0 0 0 0 0 0 0 0 0 0 0 0 0 0 0 0 0 -0 -0 0 0 0 0 0 0
0 0 0 0 0 0 0 0 0 0 0 0 0 0 0 0 0 0 0 0 0 0 0 0 0 0 0 0 0 0 0 0 0 0 0 -0 -0 -0 0 0 0 0 0 0
0 0 0 0 0 0 0 0 0 0 0 0 0 0 0 0 0 0 0 0 0 0 0 0 0 0 0 0 0 0 0 0 0 0 0 0 -0 -0 0 0 0 0 0 0
0 0 0 0 0 0 0 0 0 0 0 0 0 0 0 0 0 0 0 0 0 0 0 0 0 0 0 0 0 0 0 0 0 0 0 0 0 0 0 0 0 0 0 0
0 0 0 0 0 0 0 0 0 0 0 0 0 0 0 0 0 0 0 0 0 0 0 0 0 0 0 0 0 0 0 0 0 0 0 0 0 0 0 0 0 0 0 0
0 0 0 0 0 0 0 0 0 0 0 0 -0 0 0 -0 -0 0 0 0 0 0 0 0 -0 0 0 0 0 0 0 0 0 0 0 0 0 0 0 0 0 0 0 0
0 0 0 0 0 0 0 0 0 0 0 -0 -0 0 0 0 -0 -0 -0 0 0 0 0 0 0 0 0 0 0 0 0 0 0 0 0 0 0 0 0 0 0 0 0 0
0 0 0 0 0 0 0 0 0 0 0 -0 -0 0 0 0 -0 -0 -0 -0 0 0 0 0 0 0 0 0 0 0 0 0 0 0 0 0 0 0 0 0 0 0 0 0
0 0 0 0 0 0 0 0 0 0 0 0 0 0 0 0 -0 -0 -0 -0 0 0 0 0 0 0 0 0 0 0 0 0 0 0 0 0 0 0 0 0 0 0 0 0
0 0 0 0 0 0 0 0 0 0 0 0 0 0 0 0 -0 -0 -0 -0 0 0 0 0 0 0 0 0 0 0 0 0 0 0 0 0 0 0 0 0 0 0 0 0
-0 0 0 0 0 0 0 0 0 0 0 0 0 0 0 0 0 -0 0 0 0 0 0 0 0 0 0 0 0 0 0 0 0 0 0 0 0 0 0 0 0 0 0 0
0 0 0 0 0 0 0 0 0 0 0 0 0 0 0 0 0 0 0 0 0 0 0 0 0 0 0 0 0 0 0 0 0 0 0 0 0 0 0 0 0 0 0 0
0 0 0 0 0 0 0 0 0 0 0 0 0 0 0 0 0 0 0 0 0 0 0 0 0 0 0 0 0 0 0 0 0 0 0 0 0 0 0 0 0 0 0 0
0 0 0 0 0 0 0 0 0 0 0 0 0 0 0 0 0 0 0 0 0 0 0 0 0 0 0 0 0 0 0 0 0 0 0 0 0 0 0 0 0 0 0 0
0 0 0 0 0 0 0 0 0 0 0 0 0 0 0 0 0 0 0 0 0 0 0 0 0 0 0 0 0 0 0 0 0 0 0 0 0 0 0 0 0 0 0 0
0 0 0 0 0 0 0 0 0 0 0 0 0 0 0 0 0 0 0 0 0 0 0 0 0 0 0 0 0 0 0 0 0 0 0 0 0 0 0 0 0 0 0 0
0 0 0 0 0 0 0 0 0 0 0 0 0 0 0 0 0 0 0 0 0 0 0 0 0 0 0 0 0 0 0 0 0 0 0 0 0 0 0 0 0 0 0 0
0 0 0 0 0 0 0 0 0 0 0 0 0 0 0 0 0 0 0 0 0 0 0 0 0 0 0 0 0 0 0 0 0 0 0 0 0 0 0 0 0 0 0 0
Wind_Speed
3 4 9 11 9 5 5 5 5 6 4 4 8 10 9 6 5 7 7 8 8 10 8 7 8 8 8 8 8 8 7 6 5 3 3 3 2 1 1 1 1 1 1 1
2 7 8 6 6 5 4 4 4 3 3 4 5 9 8 7 7 8 9 9 9 7 5 7 8 8 9 10 9 9 8 7 6 4 3 2 2 2 1 1 0 1 1 1
7 5 4 5 5 7 7 6 5 4 1 1 0 6 7 5 5 5 6 8 8 9 10 10 9 9 9 10 11 9 9 8 6 5 3 2 2 1 0 0 1 1 1 1
4 4 4 5 6 6 7 6 5 4 2 3 2 5 7 5 5 6 7 7 8 8 9 9 10 10 11 10 9 9 9 8 6 6 6 6 4 3 3 2 2 2 2 2
4 3 4 6 6 5 4 3 4 3 3 1 2 3 9 2 6 8 8 8 8 8 9 10 11 12 10 9 9 8 8 7 7 7 7 6 3 2 1 1 1 2 2 2
3 1 2 4 2 4 3 4 3 2 2 4 7 6 8 5 8 7 7 6 6 6 7 8 8 8 7 7 7 8 8 7 7 7 6 6 5 3 3 2 2 2 2 2
2 2 1 1 2 0 3 5 2 0 2 7 4 5 9 6 6 7 7 6 5 5 5 6 7 8 9 9 8 8 9 7 7 7 6 6 6 5 5 4 3 3 2 2
2 3 3 1 3 4 5 7 6 6 6 4 2 7 7 5 4 3 3 3 3 3 4 5 7 9 9 10 9 9 9 7 7 7 6 5 5 4 3 4 3 3 3 3
3 3 2 2 1 4 5 4 4 4 2 2 4 5 6 3 2 1 1 1 2 2 3 3 5 7 8 9 9 9 9 7 7 7 6 5 5 4 4 3 3 3 3 2
2 2 2 1 2 2 2 4 3 4 5 4 3 4 4 2 2 1 1 1 0 0 1 1 2 4 6 7 6 7 7 7 6 6 6 5 4 4 4 3 3 3 3 3
1 2 1 1 2 4 2 2 2 2 3 4 3 5 3 3 2 2 1 1 1 1 1 1 1 1 3 4 5 5 5 5 5 5 5 4 4 3 3 3 3 3 3 3
1 3 1 3 3 2 2 4 4 4 3 3 3 5 2 1 0 2 1 1 1 1 1 1 2 2 3 3 3 3 4 4 5 4 4 4 3 3 3 3 3 3 3 3
2 4 2 2 2 2 0 1 2 3 3 3 3 5 2 3 3 2 2 1 1 2 2 3 2 2 2 2 2 2 3 3 3 3 3 3 3 3 3 3 3 2 2 2
2 3 5 8 6 4 3 4 3 4 3 4 6 6 4 2 1 1 1 1 2 2 2 2 2 2 1 1 2 2 2 2 2 3 3 3 3 3 3 3 2 2 2 2
3 2 2 3 4 3 4 5 5 6 7 7 6 6 6 4 2 1 1 2 2 2 2 2 1 1 1 1 1 1 1 1 2 3 2 2 2 2 1 1 1 1 1 2
2 2 0 2 3 2 3 4 5 5 5 5 4 6 4 2 0 1 1 2 2 0 0 0 1 1 1 0 0 1 1 1 2 2 2 2 1 1 1 1 1 0 1 1
1 3 1 2 2 1 4 5 5 4 3 5 6 6 2 1 1 2 2 2 2 1 1 1 1 1 1 1 1 1 1 1 2 2 1 1 1 1 1 1 0 0 1 1
4 3 2 1 2 3 5 1 3 4 3 4 3 3 4 3 2 1 2 2 2 1 1 1 1 1 1 1 0 1 1 2 2 2 1 1 1 1 0 1 0 1 1 1
4 4 2 2 2 5 4 2 1 4 4 3 4 2 1 1 2 1 1 1 1 1 1 1 1 1 1 1 1 2 2 2 2 2 1 1 1 1 1 0 1 1 1 2
2 3 3 2 2 5 4 4 2 2 3 3 2 3 2 2 1 4 1 1 1 1 1 1 1 1 1 1 1 2 2 2 2 1 1 1 1 1 0 0 1 1 1 1
1 1 2 3 3 6 4 4 2 3 5 3 1 2 3 3 3 2 1 1 1 1 2 2 2 1 1 1 2 2 2 1 0 1 1 2 1 1 1 1 1 1 1 1
3 2 3 3 3 6 2 2 2 3 2 1 1 1 1 0 1 1 1 1 2 2 3 3 2 2 2 2 3 3 1 1 1 2 2 2 2 1 1 1 1 1 1 1
3 4 4 5 5 3 1 1 2 1 1 1 0 0 2 1 1 1 1 2 2 2 2 2 2 3 3 2 2 3 1 1 2 3 2 2 2 2 1 1 1 1 1 1
3 1 1 2 3 3 2 2 3 3 2 1 1 1 1 1 2 2 2 2 2 2 2 2 3 3 3 3 3 2 1 2 3 2 2 2 2 2 2 1 1 1 1 1
3 1 1 3 3 3 3 3 3 3 3 3 3 2 1 3 2 2 2 2 2 2 2 2 2 2 2 3 3 3 2 2 3 2 2 2 2 2 2 2 2 1 1 1
1 2 2 4 3 2 4 4 2 2 2 2 2 2 2 2 2 2 2 2 2 2 3 3 3 3 3 3 3 3 3 2 2 2 2 1 1 1 1 2 3 4 4 4
Wind_Direction
178 165 200 205 200 200 180 187 219 235 232 196 224 244 251 241 222 218 215 208 206 210 208 185 177 169 160 160 160 162 157 161 152 145 149 151 166 177 182 195 172 157 151 140
133 225 218 201 205 221 209 211 231 262 238 209 236 256 256 235 223 212 208 209 209 207 195 183 177 172 170 171 170 168 167 166 168 167 166 160 158 176 193 200 185 191 182 184
195 226 191 185 197 212 226 209 208 215 325 344 263 283 259 250 231 226 218 210 205 198 194 188 181 182 177 176 176 175 174 170 170 159 136 110 81 63 60 220 222 236 215 205
225 250 194 191 205 192 232 213 199 187 150 252 173 262 271 241 239 234 230 220 215 208 198 189 181 182 184 183 177 172 171 170 167 158 156 160 167 182 209 203 214 241 232 225
228 214 181 196 207 182 212 198 188 189 169 260 215 218 276 250 236 237 231 223 219 208 196 191 186 184 184 179 173 171 168 170 166 165 166 168 175 190 190 184 204 237 253 244
246 262 182 191 195 180 143 78 59 56 101 242 213 191 266 231 223 229 228 223 216 206 198 192 185 174 173 170 167 167 168 173 171 169 170 176 178 181 175 191 210 235 254 257
316 304 318 111 104 152 131 113 97 108 217 241 200 193 248 244 231 213 213 215 210 197 183 176 175 174 171 169 170 172 172 176 176 174 178 184 184 183 187 196 208 217 238 251
159 242 244 203 173 188 190 159 167 187 204 249 203 221 252 260 249 228 209 198 180 174 184 181 181 179 174 172 172 174 177 179 179 179 185 185 182 183 196 206 206 214 226 236
174 239 289 276 265 151 165 192 175 139 156 199 242 263 295 332 359 20 71 107 164 184 186 185 182 176 174 174 177 178 177 177 182 183 181 182 183 187 199 209 211 218 230 237
151 193 280 291 78 18 149 147 119 145 165 219 245 235 238 276 267 317 95 142 181 139 139 133 162 178 174 173 172 172 175 180 182 181 182 183 186 192 196 198 211 222 233 235
100 133 296 17 189 193 138 136 138 149 173 169 215 251 225 206 215 200 211 192 151 141 123 128 111 139 148 147 153 162 171 171 177 183 183 180 188 191 190 203 216 224 231 232
155 119 183 259 281 276 169 168 147 159 217 200 195 258 304 293 354 135 144 109 89 92 83 83 81 78 102 127 142 158 169 174 184 183 176 178 181 181 191 209 220 223 225 235
154 128 104 347 330 352 213 201 168 144 135 174 188 254 334 26 42 78 104 99 76 71 60 55 57 69 93 127 139 153 165 176 175 163 161 164 176 185 203 215 223 222 220 242
100 138 175 196 220 202 236 251 206 158 179 209 222 244 290 334 4 14 72 85 75 84 83 64 42 41 53 126 147 150 158 162 158 150 156 170 192 200 209 216 221 220 219 239
95 144 203 244 251 232 245 233 215 205 199 201 225 237 262 261 236 209 133 101 81 68 64 66 41 15 13 44 123 143 146 149 146 147 163 191 205 198 187 203 214 213 231 263
76 136 143 294 268 246 264 245 223 224 213 222 239 264 277 280 323 160 159 131 124 148 273 35 41 24 1 329 207 162 150 151 141 154 182 186 173 164 165 184 186 216 272 278
121 136 130 265 305 25 264 236 212 212 213 191 222 240 265 270 195 199 187 166 180 199 223 225 250 258 270 261 208 183 177 134 126 136 154 152 151 149 164 158 125 253 271 283
154 132 135 161 65 229 250 259 196 196 231 210 223 227 213 216 213 210 172 166 184 206 221 264 265 282 305 292 134 126 112 114 114 105 98 100 110 117 123 118 163 288 292 289
174 151 137 148 207 268 287 301 204 192 250 239 229 245 224 160 58 342 341 122 184 236 249 263 281 277 319 7 114 111 97 100 105 101 88 79 102 109 92 110 272 296 324 319
80 118 133 150 182 235 262 298 288 122 267 283 223 224 205 124 185 252 275 37 38 11 2 7 344 356 40 14 96 112 111 105 111 122 123 93 92 98 101 265 299 344 339 311
53 69 156 183 218 258 280 322 55 149 251 297 212 198 185 206 225 232 178 47 61 44 31 33 33 34 19 44 100 110 103 110 125 89 74 63 60 69 58 25 24 12 357 348
178 171 194 174 209 253 317 68 159 239 298 324 187 166 140 70 63 97 102 84 60 45 28 33 47 28 15 57 98 95 81 47 63 68 59 44 35 32 39 51 21 20 16 355
197 195 201 201 219 274 311 218 281 307 311 306 274 59 125 106 124 94 89 84 72 69 40 34 48 36 22 35 83 94 42 59 71 69 54 36 31 35 42 57 31 9 12 351
286 290 207 263 275 307 323 337 342 348 343 348 30 99 124 140 138 114 104 91 78 73 63 54 54 49 28 26 49 66 48 68 82 75 54 38 41 27 21 26 30 16 344 328
254 241 225 255 282 330 332 334 333 357 21 35 32 41 105 125 124 120 108 89 80 67 56 58 62 50 27 31 40 34 39 65 73 66 51 36 35 32 21 19 22 353 311 289
251 223 215 245 259 258 276 304 327 11 8 23 51 36 35 94 114 104 97 80 78 67 56 56 55 46 31 35 31 20 23 55 77 62 43 29 23 19 22 23 8 12 9 359